RH
18 18 18 18 18 18 18 19 19 19 20 20 21 21 22 22 23 23 24 24 24 24 24 24 24 24 25 25 26 27 27 26 26 25 25 24 18 13 11 12 16 19 19 19 19 18 16 15 14 15 20 28 36 40 40 42 44 43 42 40 38 37 37 38 37 37 36 36 36 34 35 37 37 36 36 36 36 36 36 35 33 33 35 40 46 48 46 42
16 15 15 14 14 14 13 13 14 14 14 15 15 16 17 17 18 19 20 21 22 23 24 24 24 25 25 25 25 25 26 26 26 25 24 24 24 21 17 13 12 15 18 20 20 20 19 18 16 14 15 17 23 30 34 37 41 42 42 39 33 32 34 36 39 38 35 36 36 35 35 36 37 37 36 36 36 36 36 35 33 32 32 32 34 37 39 38
13 12 11 10 9 9 9 9 9 9 9 9 9 10 10 11 11 12 13 14 15 16 18 20 21 23 24 25 25 25 25 25 25 25 24 24 24 24 23 20 15 13 13 17 20 20 19 19 18 17 16 14 14 19 24 29 31 35 39 35 28 29 33 36 39 38 33 34 38 36 34 35 37 37 35 36 36 36 36 36 35 34 33 31 31 31 32 32
10 9 8 7 7 7 6 6 6 6 6 6 6 6 6 7 7 7 8 8 9 10 11 12 14 16 18 20 22 24 25 25 24 24 24 25 24 23 23 23 22 19 14 13 15 19 20 19 20 20 19 16 14 13 15 18 21 25 28 26 23 27 34 35 35 33 30 32 37 38 35 32 36 37 34 34 36 36 36 37 36 36 35 33 33 32 31 31
9 8 7 6 6 6 6 6 6 6 5 5 5 5 5 5 5 5 5 6 6 6 7 7 8 10 11 13 15 19 21 22 23 24 24 24 25 23 22 22 24 24 21 16 13 14 18 20 20 21 21 19 17 15 12 12 14 18 18 16 20 24 29 32 28 26 27 31 34 36 33 29 34 35 32 31 32 35 36 36 36 37 36 35 35 34 33 33
8 7 6 6 6 6 6 6 6 6 6 6 6 7 7 7 7 6 6 6 6 5 5 5 6 6 7 8 9 12 14 17 19 22 23 24 24 24 23 22 23 24 25 23 17 12 13 16 20 21 21 20 20 18 16 14 12 13 12 11 17 19 21 24 21 20 24 27 29 33 29 25 28 30 30 30 29 34 35 33 34 37 36 36 36 35 35 35
7 7 7 7 7 7 6 6 6 7 7 8 8 8 9 9 10 10 11 11 11 9 8 6 6 5 5 6 6 7 8 10 14 17 20 22 23 24 24 24 23 23 24 25 23 18 13 11 14 18 21 21 21 19 19 19 16 13 11 10 12 14 15 16 14 14 18 23 23 27 25 19 22 25 27 26 28 32 31 31 32 35 36 36 36 36 36 36
7 7 7 7 7 6 6 7 7 8 9 10 10 11 12 14 15 16 17 19 19 17 15 12 10 8 7 7 6 6 6 7 9 11 15 17 20 22 23 24 24 24 24 24 25 24 20 14 11 12 16 20 22 22 21 20 19 17 15 13 11 10 12 12 12 10 12 17 16 16 16 15 18 21 21 22 27 29 28 31 31 32 34 35 35 35 35 36
7 7 7 7 7 7 7 8 9 11 13 14 16 18 20 21 21 22 22 22 22 20 18 17 14 13 11 10 8 7 8 9 8 8 10 12 15 19 21 23 24 24 25 25 24 25 25 21 16 12 11 14 19 22 23 21 20 19 18 18 14 12 12 11 11 9 9 12 11 9 10 12 13 14 15 18 22 24 25 28 29 30 31 32 33 33 33 34
7 7 7 7 7 8 8 10 13 16 19 22 23 24 26 27 27 26 24 21 19 17 16 15 14 13 12 12 11 9 9 10 8 6 7 8 11 14 18 21 22 24 24 25 25 25 26 26 24 17 10 9 12 17 21 24 22 20 20 20 17 16 16 14 12 10 9 9 8 8 8 9 9 9 11 14 16 18 22 24 25 26 27 28 30 30 30 30
7 7 7 7 8 8 10 13 17 22 26 28 28 30 31 32 30 25 21 18 17 16 15 14 13 12 12 11 10 10 10 9 8 7 6 6 7 9 12 16 19 22 23 24 26 26 26 27 26 23 17 11 8 10 15 21 24 22 21 21 18 18 19 18 16 13 11 10 8 8 8 7 7 6 8 10 11 13 17 19 20 21 22 24 25 25 26 25
7 7 7 7 9 11 14 18 23 28 31 32 31 32 34 32 27 21 18 17 18 19 17 16 16 14 13 12 11 12 12 9 8 7 6 6 6 7 8 11 15 18 21 23 25 26 26 26 27 28 26 18 11 8 9 14 21 24 24 23 21 20 19 17 17 17 15 13 11 10 9 6 5 5 7 8 8 10 12 14 15 17 17 18 19 21 21 21
7 7 8 9 12 16 20 25 29 32 32 31 30 32 33 28 22 20 20 21 23 23 22 22 21 18 15 13 13 16 16 12 9 7 7 6 6 7 7 8 10 14 18 21 23 24 26 27 27 29 28 24 20 12 7 8 13 20 25 26 24 22 19 16 16 17 16 15 14 14 10 6 6 5 6 8 6 8 10 10 12 13 14 15 16 17 18 19
8 8 10 13 16 20 26 31 32 31 29 27 28 31 29 23 22 24 25 28 28 26 26 28 26 24 20 17 17 18 18 15 11 8 6 6 6 6 7 7 8 10 14 18 21 23 25 27 27 28 27 28 25 15 10 8 8 13 20 26 26 24 21 18 17 16 16 15 14 15 11 7 8 6 6 7 6 8 9 9 10 10 11 13 14 15 16 17
9 11 15 17 21 26 30 32 31 28 26 27 31 29 24 23 24 26 29 31 30 29 31 33 32 29 24 21 21 20 18 16 15 12 8 6 6 6 7 7 7 8 11 14 18 21 23 26 28 29 28 29 27 23 18 12 8 9 12 20 24 25 24 21 19 17 16 15 13 14 12 9 11 9 6 6 6 7 8 8 8 9 10 10 11 13 14 15
12 15 18 21 27 31 31 29 27 26 27 31 31 26 22 23 23 24 29 31 32 35 38 40 38 34 29 27 26 23 21 22 24 19 11 6 5 6 6 7 7 8 9 12 15 19 22 24 28 29 29 29 28 29 27 18 11 8 7 13 20 24 26 22 19 20 19 16 13 12 11 10 13 13 7 6 7 7 8 8 8 8 8 9 9 10 12 13
15 18 22 28 32 32 29 26 25 25 28 30 26 22 23 23 24 28 32 35 38 40 42 42 39 34 33 35 33 30 29 30 33 24 13 8 6 5 6 6 8 8 8 10 13 16 19 22 26 28 28 28 28 31 30 22 12 8 6 8 14 21 27 24 20 23 23 19 14 12 12 11 12 12 8 7 8 7 7 7 7 8 8 8 8 8 9 10
18 23 29 33 32 29 26 22 20 21 23 23 20 21 24 26 31 35 39 41 39 38 38 37 36 34 39 42 36 35 36 39 42 31 15 10 7 4 6 7 8 9 9 9 11 14 18 20 24 27 28 27 28 29 28 20 12 8 7 6 10 17 25 26 22 24 26 22 18 14 11 10 10 10 8 9 10 8 7 7 7 8 7 7 7 7 8 8
23 30 35 33 29 26 22 17 16 18 18 19 19 22 24 28 38 43 46 47 45 50 49 41 34 33 48 52 39 39 45 48 50 36 17 10 8 6 7 8 8 9 10 9 11 13 16 19 22 24 26 25 25 25 24 22 19 14 9 7 8 12 21 26 22 24 28 26 22 17 13 10 9 9 9 11 12 9 8 7 7 7 7 7 7 7 7 7
28 34 35 30 26 23 18 15 16 17 18 19 19 21 22 29 44 51 49 47 50 61 65 62 46 35 55 63 48 47 54 58 54 36 19 11 8 9 9 11 11 11 11 10 11 14 16 18 20 22 23 24 24 25 28 27 23 18 12 9 8 9 16 24 26 26 29 27 23 20 17 13 10 9 9 11 11 10 10 8 8 7 7 7 7 7 7 7
32 37 33 27 25 21 17 15 16 18 20 21 21 22 24 34 50 56 52 44 50 66 71 76 66 51 63 67 57 60 64 67 55 32 22 16 13 12 13 19 19 15 13 10 12 16 18 17 18 20 22 25 25 27 31 28 25 22 14 10 9 8 12 22 29 29 29 27 24 22 19 14 12 10 9 10 10 10 10 10 9 8 7 7 7 7 7 6
36 38 30 26 25 20 17 16 18 21 23 25 26 28 31 43 59 64 61 49 54 74 74 74 74 68 72 69 67 72 71 72 55 30 23 23 21 15 22 36 32 21 17 13 15 18 18 15 17 20 21 25 26 30 31 27 27 26 18 13 10 8 10 20 29 30 30 29 26 23 19 15 13 11 9 9 9 9 10 11 11 10 8 8 7 7 7 6
39 38 29 26 25 22 19 18 21 25 28 30 34 40 45 56 67 69 68 53 53 72 76 79 86 81 76 72 75 77 73 76 61 36 26 26 24 19 37 57 42 27 23 16 15 17 15 13 16 20 21 24 26 29 30 26 27 27 21 16 11 8 9 17 27 30 29 28 27 24 20 17 15 12 10 9 9 9 10 11 12 12 11 9 8 7 6 6
42 39 30 27 27 26 22 21 27 30 33 40 47 55 61 68 74 75 72 57 50 65 76 86 91 85 79 76 80 78 78 84 69 42 28 26 25 28 56 72 47 29 25 18 16 15 14 16 20 21 19 22 25 27 30 28 28 28 26 21 14 9 9 16 28 30 29 29 26 23 20 18 15 13 10 8 9 9 9 10 11 12 12 10 9 7 7 7
43 42 33 27 29 30 27 26 32 35 40 51 59 67 73 77 83 85 77 61 57 65 73 79 79 79 81 81 86 85 84 89 72 43 28 26 31 48 77 77 51 37 25 17 20 18 20 23 23 22 19 21 24 27 30 29 29 29 28 25 17 10 9 17 28 30 30 28 24 22 20 17 15 13 11 9 8 8 8 9 10 12 13 12 10 8 8 7
44 45 35 29 30 32 33 33 37 41 50 63 71 75 79 86 93 91 78 68 68 71 75 81 78 78 83 87 95 93 90 92 76 47 28 26 45 76 92 72 53 47 28 23 27 21 25 29 23 21 19 21 24 26 30 30 30 30 28 26 20 11 10 17 27 30 29 27 24 23 20 19 16 12 11 10 8 8 8 8 9 11 13 13 12 10 9 7
46 47 37 32 31 32 36 39 43 48 56 71 83 85 85 94 97 88 79 73 71 77 87 91 87 87 90 94 101 99 97 95 81 55 28 28 63 97 99 71 55 49 37 45 48 26 27 31 21 20 21 22 25 25 28 29 30 30 28 28 23 12 10 18 26 30 29 28 27 24 22 21 17 12 11 11 9 8 8 8 8 10 13 14 14 12 10 9
49 49 40 34 34 35 37 41 48 53 61 79 95 93 87 93 93 85 85 80 75 86 94 93 94 98 97 98 100 95 93 95 92 70 34 36 79 104 98 77 61 51 43 58 58 30 25 27 18 22 25 24 25 25 28 30 32 33 28 30 27 14 11 18 25 28 28 28 26 23 23 21 16 13 12 11 10 9 8 8 8 9 12 13 14 13 12 11
51 49 41 35 37 40 40 44 50 57 72 90 102 97 85 89 88 81 83 82 81 89 86 86 97 99 96 97 93 89 92 96 102 82 38 44 89 103 97 85 70 60 45 46 59 41 22 22 24 28 30 27 27 28 29 30 35 34 27 32 32 17 10 17 23 26 26 25 24 23 22 19 16 14 11 10 9 8 9 8 8 9 10 13 14 14 13 12
52 48 40 36 39 42 43 48 54 64 82 95 101 96 83 86 87 76 78 84 86 78 63 75 96 95 96 99 88 85 92 97 104 86 46 58 99 102 99 95 73 63 41 30 70 79 36 22 33 38 38 36 34 32 29 34 42 37 30 37 36 18 10 16 21 23 24 22 21 23 22 18 16 13 10 10 9 9 9 8 8 9 9 12 13 14 14 13
52 47 38 36 39 44 47 53 60 73 87 93 96 92 82 83 82 75 80 89 87 65 45 65 95 95 97 102 88 77 84 97 105 87 56 72 107 102 100 97 70 69 62 39 69 90 54 37 42 42 46 44 39 35 31 40 48 39 35 42 36 18 11 15 18 21 21 19 21 22 22 19 16 14 12 11 10 9 9 8 8 9 9 11 12 15 15 14
51 45 38 36 40 46 51 58 67 76 84 86 88 89 85 80 76 76 87 94 87 64 45 62 90 98 100 101 90 74 77 97 106 89 67 81 107 102 97 91 66 69 77 60 64 70 57 53 48 44 51 45 37 38 39 47 51 42 42 44 34 19 11 13 16 19 18 18 20 22 21 19 15 15 13 11 11 10 9 10 9 9 10 11 14 15 15 15
52 45 38 36 42 49 54 62 71 75 79 82 86 89 88 80 74 81 95 101 92 69 53 58 71 86 99 101 95 80 72 90 103 87 72 87 106 102 97 92 71 62 59 53 60 57 48 55 53 53 57 44 37 41 40 42 41 37 40 41 33 21 12 12 14 16 18 16 18 20 20 18 15 15 12 10 11 10 10 10 10 10 12 14 16 16 16 16
52 47 38 37 44 51 56 64 72 72 70 76 86 87 83 73 69 82 98 104 99 82 67 62 60 68 82 84 90 93 84 92 103 81 67 91 107 100 99 93 79 76 67 54 55 45 35 46 52 54 56 45 40 42 39 39 38 38 42 42 35 23 13 12 13 14 16 16 16 18 18 17 16 14 11 10 11 10 10 11 10 11 14 17 17 17 17 17
52 49 37 37 47 54 58 66 74 70 61 64 76 78 73 67 68 84 99 102 102 95 83 77 73 73 73 64 69 89 92 96 102 78 64 90 105 100 101 93 81 86 83 68 60 44 28 32 41 50 60 55 47 48 52 56 55 51 50 45 36 26 18 14 13 14 15 15 14 16 17 17 16 13 10 11 12 10 10 11 10 11 13 16 18 18 18 17
52 48 37 37 47 53 58 69 77 74 64 59 63 65 67 72 79 90 99 100 102 101 95 91 89 87 87 75 63 74 87 97 96 71 65 91 104 102 101 93 81 73 67 67 65 51 30 25 39 61 72 67 60 58 58 59 57 51 47 43 37 32 25 18 15 13 14 14 13 13 17 17 14 11 10 11 12 11 11 10 10 11 13 16 18 18 17 16
52 49 38 36 45 51 57 70 80 80 77 67 59 60 64 72 80 87 94 100 102 101 99 100 99 97 99 95 80 72 77 93 90 66 71 96 103 103 98 87 75 60 59 71 69 60 44 29 39 65 74 70 69 69 63 61 62 55 46 44 43 37 27 22 21 16 13 14 12 13 17 18 15 12 10 11 12 11 10 11 10 11 13 16 17 17 16 16
52 53 43 35 42 49 55 69 80 85 89 83 69 61 62 68 74 83 94 100 101 102 100 100 103 100 100 101 98 83 67 75 79 62 72 98 102 99 94 81 66 51 57 75 77 73 58 34 41 69 83 82 80 79 73 66 63 61 57 51 43 34 27 24 22 17 13 12 12 14 16 18 16 13 11 12 12 11 11 11 11 11 13 15 15 15 15 16
52 57 46 35 41 48 53 68 81 88 95 97 87 70 62 70 80 87 98 100 99 102 101 100 102 101 100 100 103 99 81 70 64 56 70 96 100 93 87 77 59 42 46 70 87 84 59 38 52 79 94 96 89 81 76 67 54 52 59 54 40 34 31 27 23 18 17 17 15 15 16 19 17 13 12 12 12 12 11 11 11 12 13 14 15 15 15 16
54 64 50 35 41 49 54 70 83 89 94 99 101 87 67 67 78 85 95 101 102 101 101 101 100 99 97 94 97 104 98 81 62 56 71 90 90 81 76 67 48 34 40 62 87 86 55 43 64 87 101 102 89 78 76 73 57 43 44 44 40 37 33 31 29 25 24 24 20 17 16 18 17 13 11 12 12 12 11 12 12 12 14 15 15 16 16 17
54 65 51 36 45 54 62 74 78 82 92 97 101 98 78 64 69 78 86 98 103 100 101 101 98 94 86 83 88 89 86 77 59 50 60 74 75 65 58 54 41 34 36 43 69 82 64 59 75 90 98 94 87 87 85 78 67 52 43 40 40 39 34 34 33 28 27 27 23 20 18 18 17 13 12 12 13 13 12 14 15 15 16 16 15 17 17 18
51 58 48 39 47 57 69 79 71 71 90 99 97 97 83 63 66 77 82 92 101 100 101 97 90 90 86 82 81 73 74 83 76 64 58 59 64 56 45 42 36 35 33 31 52 74 73 77 88 92 95 94 96 98 88 76 69 60 50 44 43 41 36 34 33 29 28 26 21 21 21 22 19 13 12 14 14 14 13 14 16 17 17 17 17 18 18 18
45 50 45 40 45 55 72 85 80 76 89 101 100 96 81 62 66 80 80 87 99 99 100 95 84 89 95 91 81 70 72 85 91 90 73 56 60 57 43 36 35 40 44 42 50 59 67 88 101 98 99 100 102 100 89 80 71 60 51 45 43 41 36 40 41 33 28 27 24 21 21 24 23 15 13 15 15 16 16 15 15 16 17 17 19 18 19 19
43 46 41 38 40 49 65 77 80 81 88 99 100 93 81 65 65 76 77 83 96 99 101 96 82 85 99 97 86 80 76 70 72 79 68 53 56 53 37 31 40 47 45 48 59 62 70 94 105 101 103 105 105 102 91 77 64 54 49 42 40 40 38 44 45 34 30 29 26 25 24 23 21 17 15 15 17 18 18 16 15 16 17 17 19 19 19 20
43 48 42 37 38 44 51 60 68 73 83 96 94 83 77 70 67 72 74 80 91 97 103 98 83 83 99 102 94 91 84 68 67 75 68 51 47 42 27 21 37 46 35 39 65 77 86 102 102 97 96 90 83 73 59 50 46 45 45 39 38 38 37 40 38 32 32 29 25 31 38 31 22 19 17 16 18 18 17 16 16 16 17 18 20 21 20 20
39 52 52 44 37 37 42 51 59 63 75 89 88 79 75 72 72 75 77 84 94 98 102 101 90 85 95 103 99 94 81 61 61 72 68 56 48 39 24 14 25 34 27 36 61 74 89 101 94 86 79 69 63 55 46 45 44 44 43 39 38 38 37 38 36 33 32 28 25 30 39 36 27 22 19 17 18 18 17 17 17 17 18 20 21 21 21 22
29 46 55 50 40 38 43 51 59 64 74 85 87 83 78 72 74 80 85 93 100 100 100 101 95 86 91 100 99 98 88 67 60 56 45 44 44 29 16 16 21 21 30 59 78 78 88 92 79 74 76 77 79 73 64 61 55 50 48 45 44 41 39 39 37 33 31 31 31 26 25 27 24 20 19 18 18 18 18 18 18 18 19 21 22 22 23 24
24 40 53 52 41 37 42 49 59 68 77 88 93 89 85 82 76 74 84 97 102 100 100 102 95 87 94 102 98 98 98 85 71 51 32 33 35 21 15 29 43 47 58 86 96 89 93 92 78 73 79 86 88 77 66 64 59 55 52 48 47 44 41 39 36 34 33 34 36 31 24 22 19 18 21 20 18 19 19 19 19 20 21 22 23 25 27 29
22 38 52 56 45 36 38 45 55 65 74 89 97 89 89 95 84 68 74 93 102 101 100 100 95 87 92 101 99 98 99 88 71 54 43 45 47 41 36 43 63 80 86 94 96 90 89 90 83 76 72 73 75 70 67 65 59 54 51 48 47 44 41 40 37 36 36 34 34 34 28 22 19 20 22 21 20 20 20 20 20 21 23 24 27 30 33 36
19 31 47 60 53 39 38 43 53 64 74 89 100 95 92 99 93 75 70 83 97 102 100 101 98 90 90 99 102 99 97 91 80 66 58 60 68 76 76 72 82 95 97 98 98 90 86 87 82 75 68 67 69 70 70 66 60 56 52 49 47 43 41 40 37 36 37 35 36 38 32 25 23 25 24 23 23 21 20 21 22 23 25 28 31 36 39 39
15 22 38 57 58 43 37 42 50 63 76 86 96 99 97 99 99 91 81 82 93 99 98 99 97 90 93 102 102 95 91 91 90 84 78 81 89 96 99 98 99 101 100 96 92 88 88 86 80 76 73 72 71 71 68 64 61 58 54 50 46 42 40 38 36 38 40 41 44 42 33 28 28 29 28 28 25 22 22 23 24 25 28 33 37 39 40 37
15 19 30 49 61 51 40 41 48 58 70 81 89 95 98 97 97 96 91 87 91 93 92 97 95 89 94 102 98 92 91 93 97 97 96 98 100 100 100 99 98 99 97 90 87 90 88 82 81 83 79 72 69 69 67 62 59 55 51 48 44 41 40 37 37 43 45 43 45 42 34 32 33 32 32 32 28 25 26 25 26 28 32 36 40 41 39 35
Wind_Speed
31 32 33 33 35 36 37 39 41 42 44 45 47 48 50 51 53 54 55 56 58 59 60 61 62 63 63 64 65 65 65 65 65 66 66 65 65 66 66 65 64 64 64 63 64 65 64 65 64 64 64 65 65 66 65 64 63 63 63 64 66 65 62 61 59 58 56 51 50 46 40 39 41 39 37 36 37 37 37 37 37 37 37 38 39 38 37 36
30 31 31 32 33 34 35 36 38 40 41 43 45 47 48 50 51 53 54 55 56 58 59 60 62 63 64 65 66 67 67 68 68 68 67 66 67 68 67 67 66 66 66 64 64 64 65 65 65 65 64 65 66 66 66 65 65 65 65 67 67 65 63 61 59 61 58 52 49 45 43 42 42 42 40 40 40 38 37 38 38 37 37 37 37 37 37 37
29 28 28 28 29 30 31 32 33 35 37 38 40 42 44 46 48 49 51 53 54 56 58 59 61 62 63 65 66 68 68 69 70 70 69 68 69 69 68 68 67 67 67 67 66 65 65 65 65 65 65 66 66 66 67 67 67 66 67 69 67 64 63 62 61 63 59 51 49 47 45 44 43 44 44 43 42 41 39 39 39 38 38 38 37 36 36 36
28 27 26 25 26 26 27 29 30 31 33 34 36 38 39 41 43 44 46 48 50 52 54 56 59 60 62 64 66 68 69 70 71 71 71 71 70 70 69 69 68 68 69 69 68 67 67 66 65 65 66 67 67 67 67 67 67 66 68 68 65 64 64 64 65 65 59 52 49 49 48 46 44 46 47 45 45 45 42 41 40 40 40 39 37 36 35 35
28 26 25 25 25 25 26 27 28 29 31 32 34 35 37 38 40 42 43 45 46 48 50 53 55 57 59 61 63 67 68 69 71 71 71 72 72 72 71 70 70 70 70 70 70 69 69 68 66 66 66 67 67 68 67 67 66 66 67 65 64 65 65 66 66 63 58 53 50 49 49 47 46 48 48 47 47 46 46 46 43 42 43 41 39 38 36 35
28 27 26 25 26 27 27 28 28 29 30 32 33 34 35 37 38 40 41 43 45 46 48 50 52 54 56 58 60 64 65 67 71 71 71 72 73 73 73 72 71 70 71 71 71 71 71 70 69 67 67 67 68 67 66 66 66 66 67 63 63 65 65 65 64 60 56 54 50 49 49 47 47 49 49 50 49 47 50 50 45 44 45 43 42 40 38 36
29 27 26 26 27 28 28 29 29 30 31 33 34 35 36 37 38 40 40 41 42 44 47 49 51 53 54 56 58 60 61 62 69 72 71 71 72 73 74 73 73 71 71 72 72 72 72 72 70 69 68 67 67 66 66 67 66 65 66 64 64 66 65 64 62 58 55 53 49 48 48 47 47 49 52 51 49 50 52 50 48 47 46 45 45 43 41 39
29 27 27 27 28 29 29 30 30 32 33 34 36 36 37 38 39 40 40 41 42 43 44 46 49 51 53 55 57 58 58 58 65 72 72 71 72 73 74 74 74 72 72 72 73 73 72 73 72 70 69 68 68 66 66 67 66 65 65 65 66 67 64 63 62 57 53 52 49 46 45 45 47 50 53 51 50 53 51 50 50 48 47 46 46 45 43 41
30 29 29 29 29 30 30 31 33 34 35 37 37 37 38 38 38 39 40 41 41 42 43 44 46 49 51 54 56 57 57 58 63 69 72 72 72 73 74 74 74 73 72 72 74 74 73 73 72 71 71 70 69 68 67 65 65 65 64 66 67 65 63 62 62 58 53 51 48 44 42 44 48 49 50 49 51 53 50 49 49 48 48 47 46 45 44 42
31 31 31 31 31 32 33 34 36 37 38 39 39 39 38 38 37 37 38 39 40 41 43 45 47 49 51 53 56 57 58 61 64 68 70 71 72 73 74 75 74 74 73 73 73 74 74 73 73 73 73 72 71 68 67 64 65 66 64 67 67 64 62 62 61 59 55 53 49 45 43 46 47 46 46 49 51 50 48 48 48 48 48 47 46 45 44 43
31 32 32 32 33 34 36 38 39 40 41 42 41 39 38 36 35 34 35 36 38 40 43 45 47 49 51 53 55 56 60 63 65 68 70 70 71 73 74 74 75 74 74 74 74 74 74 74 74 73 72 72 71 69 67 65 66 67 64 64 66 63 62 62 61 60 57 54 50 46 46 47 46 46 47 49 49 45 44 46 46 47 47 47 45 44 44 43
32 32 32 33 35 37 39 40 42 42 43 43 41 39 36 34 32 32 34 35 37 39 42 45 48 50 51 52 52 53 58 63 66 69 71 72 71 71 73 73 73 74 74 74 74 74 74 74 74 73 72 71 71 70 68 66 66 66 63 62 63 63 63 63 61 60 57 55 50 48 50 48 47 47 46 47 45 40 42 44 44 46 46 46 44 43 42 41
31 32 33 34 36 38 40 42 43 43 42 41 39 37 35 32 31 32 34 36 38 40 43 46 49 51 51 49 47 49 54 60 65 68 72 74 72 71 72 72 71 73 74 74 74 74 73 73 73 74 74 72 71 71 69 67 66 65 62 62 63 64 65 63 61 60 58 55 51 50 51 48 47 47 44 44 42 38 41 42 42 43 44 44 43 41 40 40
31 32 34 35 37 39 41 43 43 42 40 39 38 36 33 31 32 34 37 38 39 41 45 47 49 50 49 45 44 48 52 56 61 64 70 76 75 71 71 71 71 71 73 73 74 74 74 73 73 74 75 73 72 70 68 67 66 65 62 62 63 64 64 63 61 60 57 55 51 49 50 48 47 47 45 44 42 39 40 40 39 41 41 41 40 39 38 38
30 32 35 37 39 41 42 42 41 39 38 37 36 33 31 31 34 36 38 39 41 44 46 47 48 48 44 40 42 46 48 51 54 57 63 71 75 73 71 72 71 69 71 73 74 74 74 73 72 73 73 73 72 68 67 67 66 65 64 63 64 64 63 63 61 58 56 55 52 49 50 48 46 50 49 45 42 40 40 39 39 39 39 38 37 37 37 37
31 33 37 39 41 43 42 40 38 37 36 35 32 30 30 32 35 37 38 39 42 44 45 45 45 45 41 38 40 42 42 43 45 48 55 64 72 74 73 72 70 69 68 71 73 74 74 73 72 72 73 74 73 69 67 67 67 67 66 64 63 62 62 64 61 57 55 54 52 50 51 48 46 51 49 44 43 42 40 39 39 39 38 36 35 36 36 36
32 36 39 41 42 42 40 37 36 35 34 31 29 28 30 33 36 36 37 39 41 42 42 41 43 41 36 34 36 37 36 36 39 42 48 56 65 72 74 72 71 68 66 68 72 72 73 73 72 72 73 74 73 71 70 69 69 68 67 65 63 61 60 62 60 55 54 53 53 52 53 50 48 51 46 41 43 43 41 40 39 39 37 35 35 35 35 34
35 38 40 42 42 40 37 35 34 32 31 29 27 29 31 34 35 35 35 37 38 39 38 38 40 38 33 31 32 33 33 33 37 39 41 48 58 68 72 71 71 69 66 67 70 71 72 73 73 73 72 73 73 73 72 69 67 66 67 65 63 62 60 61 60 54 52 52 52 53 52 50 48 48 42 39 43 44 43 42 40 40 38 37 36 34 34 33
36 39 41 43 41 37 34 33 32 30 29 29 29 30 33 35 35 34 34 35 37 38 38 37 37 34 32 33 32 31 31 33 36 37 38 43 53 64 69 70 70 69 66 65 68 69 71 73 74 74 73 73 73 73 70 68 66 66 66 63 62 63 58 58 57 49 46 49 50 51 51 49 47 45 40 39 43 44 43 44 43 42 41 39 36 34 34 33
37 40 42 42 38 34 32 31 31 31 31 31 31 33 35 36 36 35 33 33 34 36 37 39 38 32 30 34 35 32 31 32 34 36 36 38 49 61 66 67 68 68 66 64 65 66 68 73 75 74 73 72 72 71 70 70 68 66 66 63 63 62 55 52 51 44 42 46 48 49 48 47 46 44 41 41 43 44 44 45 45 45 42 39 37 35 34 33
38 40 42 40 35 32 31 32 33 33 33 33 33 34 35 36 36 35 33 31 31 34 35 37 40 34 30 33 35 33 31 31 33 33 32 34 45 57 61 64 65 66 65 61 61 63 66 71 73 72 71 70 70 68 70 71 68 66 65 63 62 59 53 48 45 42 41 44 47 47 48 47 46 45 43 43 44 44 44 45 45 45 43 40 38 36 35 34
39 41 42 38 33 31 31 33 33 33 32 32 33 34 34 35 36 35 35 32 30 33 35 35 37 34 32 32 32 32 30 29 30 29 29 32 41 51 56 60 60 60 60 60 61 62 66 70 70 71 70 70 69 67 69 71 68 67 64 60 59 57 53 47 44 42 41 43 45 45 47 47 46 46 46 45 45 44 44 44 44 43 43 42 40 38 36 34
40 42 41 36 32 31 32 33 33 32 31 32 32 32 33 34 34 35 36 33 29 32 36 35 33 31 30 30 29 29 28 26 28 28 28 31 37 47 53 55 55 56 57 59 61 63 65 67 68 69 70 70 69 67 68 69 68 65 62 59 58 56 53 47 44 43 42 42 44 44 45 45 46 48 48 47 46 44 44 44 44 45 45 43 42 40 38 35
40 42 40 35 32 32 32 33 33 32 31 32 31 31 32 32 33 34 34 33 31 30 32 31 30 29 27 27 27 27 26 25 26 25 26 27 35 45 51 52 51 54 55 56 58 59 61 64 65 68 71 70 68 66 65 67 66 63 61 58 57 57 52 45 42 42 40 41 44 44 44 44 46 50 50 49 47 46 45 45 46 47 46 45 44 43 40 37
40 42 39 35 32 32 33 33 33 32 31 31 30 31 31 30 32 33 33 34 31 28 29 29 27 25 24 25 26 25 24 24 24 23 22 24 34 44 49 50 48 49 52 52 53 56 58 61 64 68 70 69 67 65 64 65 65 64 62 59 58 57 50 45 43 41 40 42 44 42 42 43 46 50 50 48 47 47 45 44 45 45 45 45 45 43 41 37
41 41 40 36 33 32 33 33 32 31 31 31 31 30 29 29 31 31 34 35 31 31 31 25 21 21 22 25 25 23 23 22 21 20 19 24 36 44 47 47 46 45 47 49 50 55 58 60 64 67 68 65 65 65 64 64 64 64 63 59 59 57 49 45 43 41 41 42 41 41 41 42 45 49 49 48 49 47 43 42 43 44 44 44 43 41 39 36
41 42 40 36 34 33 33 33 32 31 33 33 32 30 28 27 29 32 35 34 34 35 28 20 20 22 23 23 22 22 21 19 19 17 15 26 37 43 44 45 45 45 44 45 47 54 57 60 64 64 63 62 63 64 62 62 62 62 62 60 58 53 48 46 43 41 41 40 41 42 41 42 45 47 48 48 48 45 43 42 42 43 43 42 40 38 37 35
42 42 39 37 35 34 33 32 31 32 35 36 33 30 27 26 29 32 35 35 36 35 27 23 24 24 22 21 21 21 20 17 16 14 15 29 37 41 43 42 43 43 43 42 44 51 57 60 63 61 60 62 63 62 61 61 60 61 62 59 55 50 47 46 43 41 41 42 44 43 42 43 45 46 47 48 48 45 45 43 42 42 41 39 38 36 35 34
42 42 39 37 36 35 34 32 31 33 36 37 33 28 25 25 28 31 33 34 36 36 32 29 25 23 21 20 22 21 18 15 13 11 15 33 38 39 41 39 40 42 42 41 38 45 55 58 58 57 60 63 63 62 62 60 59 61 61 56 52 49 48 47 44 42 43 45 44 42 43 44 44 45 46 47 48 47 46 43 40 38 37 37 36 34 33 32
42 42 39 37 36 36 34 32 32 34 36 36 32 26 25 25 27 30 32 34 35 36 35 29 23 21 21 20 20 19 15 14 11 9 16 34 38 38 39 38 41 40 40 42 36 38 49 53 55 57 60 62 62 63 63 59 59 61 59 55 51 49 49 48 46 44 46 47 44 42 43 43 43 44 44 46 46 45 43 40 37 36 35 36 35 33 32 30
42 42 39 37 37 36 34 32 33 35 36 35 30 26 25 26 26 28 31 33 34 35 34 28 22 19 20 19 17 13 12 12 10 8 19 35 37 39 39 37 42 38 36 41 37 36 43 47 54 59 59 62 62 62 62 59 59 60 56 53 51 50 50 50 49 48 50 48 43 43 44 43 43 43 43 45 44 41 38 36 35 34 33 32 32 32 31 31
42 42 39 37 37 35 33 32 34 36 36 33 28 26 26 26 25 26 29 31 33 34 32 27 21 19 19 17 13 10 9 10 10 9 20 34 36 38 38 36 41 38 35 38 37 37 40 42 51 58 58 62 63 61 60 59 58 57 54 53 52 52 53 53 52 52 51 48 45 44 44 44 44 44 45 44 41 38 36 35 33 32 30 30 31 32 32 32
41 41 39 37 36 34 32 33 35 36 36 33 28 26 26 25 25 26 28 30 32 32 30 25 20 18 18 15 12 10 6 6 8 10 23 34 33 35 37 35 38 37 35 38 37 37 40 42 50 56 58 62 62 60 60 60 58 56 55 55 54 54 56 56 55 54 52 50 47 45 45 44 43 44 44 40 37 36 35 34 33 31 30 31 33 33 33 34
40 41 39 37 35 33 32 33 34 35 36 33 28 27 26 25 26 26 27 29 30 30 28 25 20 16 15 13 11 8 4 3 6 11 26 35 32 32 36 36 37 35 33 36 36 37 41 45 51 57 58 59 59 59 59 58 57 57 56 55 54 55 56 56 56 55 53 51 49 47 46 44 43 43 41 36 35 36 35 35 35 35 35 36 36 35 35 35
40 40 38 36 35 32 32 33 33 34 36 34 30 28 27 25 26 27 28 28 30 29 27 25 21 17 16 14 9 5 2 3 6 14 28 35 33 31 33 35 36 36 33 32 32 35 39 43 49 55 55 55 57 58 57 56 56 57 56 56 56 55 54 55 55 54 53 52 50 48 47 45 44 44 40 36 36 37 37 38 38 37 38 38 38 37 37 36
39 39 38 35 34 32 31 33 33 32 35 35 32 29 27 26 25 28 30 28 29 29 27 25 23 18 18 18 14 6 2 5 8 17 29 34 34 32 32 32 35 36 33 30 29 33 36 40 46 51 53 54 55 56 57 56 56 56 55 56 57 56 57 57 56 55 55 53 50 47 46 45 44 42 38 35 36 37 37 37 37 36 37 38 38 39 38 37
39 39 37 35 33 32 31 32 32 32 33 35 33 30 27 25 25 28 30 29 29 29 26 25 25 21 18 19 18 13 5 7 13 21 29 32 33 32 31 32 35 35 32 29 29 32 33 39 46 49 51 54 54 55 57 57 55 54 55 57 58 60 61 59 57 57 55 52 49 46 45 44 43 40 35 34 37 37 36 36 36 37 38 39 40 39 38 36
38 38 37 35 33 32 31 32 33 32 33 34 34 30 27 25 26 27 27 28 29 29 26 25 26 24 19 16 18 17 10 8 14 22 28 30 31 31 31 32 34 35 32 28 28 30 33 37 43 46 48 51 54 55 57 57 57 56 55 57 60 62 61 59 59 58 54 50 49 47 45 44 44 40 35 35 37 36 35 37 37 37 38 39 38 37 35 35
38 38 37 34 33 32 31 32 33 34 33 33 33 32 28 26 26 25 24 26 28 29 27 26 25 24 19 15 15 15 13 12 13 21 28 28 28 30 31 31 33 35 32 28 24 27 34 36 39 43 45 47 52 55 56 58 60 61 59 60 60 59 58 57 57 54 51 49 49 47 46 46 44 40 35 34 36 35 36 37 37 37 36 37 35 34 33 33
37 37 36 34 32 33 32 32 33 34 34 32 31 31 28 25 25 25 24 25 27 26 25 26 24 22 19 14 13 14 14 14 15 21 24 24 26 31 31 30 32 33 32 29 24 25 32 34 36 41 44 47 51 54 57 58 58 59 60 60 59 57 57 55 54 52 49 49 49 47 46 45 43 39 34 33 35 35 36 36 36 36 35 35 34 33 34 33
37 36 35 34 32 32 32 31 33 35 35 31 30 30 28 25 25 27 26 24 25 25 23 24 23 21 20 17 18 19 18 18 18 19 20 20 24 30 31 30 31 31 30 29 25 26 31 32 35 42 45 48 50 52 55 57 55 56 57 57 57 56 57 56 55 53 50 49 49 47 45 43 41 38 31 31 34 35 37 36 35 35 34 34 34 34 34 32
36 35 35 33 31 30 30 30 33 36 36 31 29 29 28 25 25 26 26 24 26 26 23 23 22 19 20 21 22 22 22 22 22 18 16 19 24 28 29 29 29 28 28 28 26 28 31 29 32 41 43 45 48 49 53 55 55 56 55 55 56 56 56 55 53 52 51 50 50 48 46 42 39 36 30 30 34 36 36 37 36 35 34 33 33 33 32 31
35 36 35 32 30 30 28 28 32 36 35 31 28 28 27 25 25 25 25 24 25 25 21 22 22 17 20 23 22 22 21 19 20 18 14 18 23 25 27 27 27 26 26 26 25 28 32 29 29 37 38 39 44 48 51 54 55 55 54 55 57 56 55 52 48 50 51 48 47 46 44 41 36 33 31 31 34 36 36 37 37 36 35 34 34 33 32 31
34 35 35 32 30 29 28 28 30 33 34 30 26 26 25 24 24 25 25 23 23 22 18 20 22 18 18 22 21 20 18 15 15 16 14 17 20 22 26 27 25 24 25 27 26 29 34 29 28 36 38 39 46 51 54 56 56 54 55 57 58 56 55 51 48 50 50 47 46 41 38 39 35 30 30 32 34 36 36 36 36 35 35 34 34 33 32 30
33 34 35 33 31 29 28 29 30 31 33 30 26 25 25 25 24 24 23 23 23 22 19 19 21 18 16 18 19 18 16 13 13 14 14 17 19 21 26 27 24 24 26 29 29 32 33 26 24 35 40 43 49 53 55 56 54 54 56 57 57 55 55 53 51 51 48 47 46 36 29 33 32 28 30 32 33 35 36 35 36 35 34 34 33 32 31 29
32 33 34 33 31 30 29 30 31 32 32 29 26 25 24 24 25 24 24 24 24 23 20 18 18 17 15 15 16 17 16 14 14 14 12 16 19 19 23 25 23 23 26 27 28 31 30 23 22 31 37 41 46 49 50 51 52 53 54 53 53 53 53 52 50 48 45 44 42 35 29 29 28 28 30 32 33 35 35 35 35 35 35 34 33 32 30 29
31 31 32 32 31 30 29 29 30 30 30 29 27 25 24 23 24 24 24 24 23 22 19 17 16 15 14 14 14 14 15 15 14 14 14 17 19 17 19 22 21 23 25 25 25 28 27 24 26 32 36 38 41 46 50 52 53 54 53 52 52 51 50 49 47 46 43 38 34 33 32 28 27 28 30 31 33 34 33 34 35 35 35 34 32 31 30 28
30 31 31 32 31 30 29 28 28 28 29 28 26 25 25 24 23 23 24 23 22 20 17 15 15 13 13 14 14 11 12 13 12 14 17 20 20 18 20 22 22 24 26 24 25 27 26 25 27 33 38 40 42 47 50 52 52 53 53 53 52 50 48 48 46 43 41 36 31 29 29 28 28 29 29 30 33 33 33 34 36 36 35 34 32 30 28 28
29 30 30 30 31 30 29 28 26 27 28 27 25 25 26 25 23 23 24 24 23 22 18 13 13 13 12 13 14 13 12 10 10 15 20 22 22 21 21 23 24 25 25 24 25 26 26 25 26 32 39 43 45 46 46 47 50 51 51 51 51 51 49 47 44 41 39 36 33 29 27 27 28 29 29 30 32 33 33 35 36 36 35 33 31 29 28 28
27 29 29 29 29 29 29 28 26 26 27 25 23 24 26 25 23 23 24 23 23 23 19 13 11 11 11 11 12 12 11 10 13 18 22 24 24 24 23 22 24 25 24 24 24 24 25 25 27 32 38 41 42 42 42 44 46 46 47 48 48 48 48 46 43 40 36 33 30 28 27 28 29 30 30 32 33 33 34 35 35 36 35 32 30 28 28 29
25 27 28 28 28 28 28 27 26 25 26 25 22 23 24 24 22 21 22 22 22 22 21 16 13 12 12 13 13 12 12 13 16 20 24 25 25 26 25 24 25 25 24 24 24 23 25 26 27 31 35 38 39 40 40 41 42 43 44 44 45 45 44 42 40 37 34 31 30 30 30 30 31 32 32 32 33 34 34 35 36 36 34 31 29 28 29 29
23 25 27 27 27 27 27 26 25 24 26 26 23 23 25 25 21 17 18 20 21 21 21 19 16 14 14 14 13 13 13 16 19 23 27 27 26 26 25 24 25 25 23 23 24 24 25 26 27 29 32 36 38 37 37 38 40 43 44 42 42 42 41 40 37 34 31 31 32 32 32 32 33 33 33 33 33 34 34 35 36 36 34 31 29 30 31 30
Wind_Direction
286 282 277 274 271 268 266 265 264 263 262 261 260 260 259 258 257 256 256 255 254 253 252 251 250 249 248 247 247 246 246 245 244 243 242 241 239 238 237 236 236 237 237 236 235 235 233 232 231 230 230 229 229 230 230 230 230 230 231 232 233 234 234 234 236 236 235 234 235 235 231 232 239 237 234 235 234 234 234 235 238 239 239 241 242 244 246 248
290 285 281 278 275 272 270 268 266 265 263 262 261 260 260 259 258 257 256 255 254 253 252 251 250 249 248 247 246 245 245 245 244 243 243 242 240 239 238 236 235 235 236 236 235 235 234 233 232 231 230 230 229 229 230 230 230 230 231 232 233 234 234 235 236 238 235 232 235 236 232 231 237 238 234 234 237 236 235 235 236 239 239 239 241 242 243 246
296 291 287 284 281 279 277 275 273 271 269 267 266 264 263 262 260 259 258 257 256 254 253 252 251 250 249 248 247 245 244 244 243 243 242 241 241 240 239 237 235 234 235 235 235 235 235 234 233 231 230 231 230 229 230 230 230 230 230 232 233 234 235 236 236 238 236 232 232 234 233 230 233 238 233 231 237 237 235 236 236 237 240 239 239 240 241 244
303 298 294 290 288 285 283 281 278 276 274 272 270 269 267 266 264 262 261 260 258 257 255 253 252 251 250 248 248 247 245 244 243 242 241 241 240 240 239 237 235 234 234 234 234 234 235 234 234 232 231 231 231 230 230 230 230 230 231 232 233 234 235 236 236 237 237 233 231 232 233 230 230 236 234 231 234 237 237 236 236 237 239 239 239 238 240 242
310 306 303 300 297 295 292 290 287 285 283 280 278 276 274 272 269 267 265 263 261 259 258 256 254 252 251 249 248 247 246 245 244 242 241 240 239 239 239 237 235 234 233 233 233 232 233 234 234 233 232 232 231 231 230 230 230 230 232 232 233 235 234 236 237 237 237 235 232 231 233 231 230 233 234 232 231 235 238 235 234 237 239 240 240 239 239 241
315 313 311 309 307 305 303 301 299 297 295 293 290 287 285 281 278 275 272 269 266 264 261 259 256 254 252 250 249 248 247 247 245 242 240 240 238 237 237 237 235 234 233 233 232 232 232 233 233 233 233 233 232 232 231 232 231 231 233 233 233 235 235 236 237 237 237 236 233 231 233 231 230 231 233 232 230 233 237 235 233 236 239 240 240 240 240 240
319 317 316 314 311 309 307 306 304 302 300 298 296 294 292 290 287 284 281 278 274 270 266 263 260 257 255 252 249 248 247 248 246 243 240 239 239 237 236 235 235 233 232 232 232 231 231 231 232 232 233 233 233 233 232 233 232 232 234 234 234 235 236 237 238 237 236 236 234 231 231 230 229 231 231 230 230 232 234 235 234 235 238 240 240 241 241 241
320 319 317 315 312 311 309 308 307 305 303 301 300 298 296 293 291 289 287 284 281 277 274 270 266 262 259 256 253 249 248 249 247 244 240 239 238 237 235 234 233 233 231 230 231 231 230 231 231 231 232 233 233 233 232 232 233 232 233 234 234 235 236 237 239 238 236 236 234 230 228 229 229 230 231 228 230 232 232 234 236 236 238 240 241 241 241 242
321 319 317 316 314 313 312 311 310 308 306 304 302 300 297 295 292 289 286 285 283 282 280 278 274 269 265 262 258 253 252 251 248 244 242 239 237 236 235 234 232 232 231 230 229 230 230 230 230 230 230 231 232 232 232 232 234 233 233 235 235 235 236 238 239 239 237 235 234 230 227 228 228 228 230 229 229 230 230 233 236 237 238 240 242 242 242 242
320 319 318 317 316 315 314 314 313 311 309 306 305 303 300 297 293 289 286 285 284 284 284 283 281 278 274 269 264 259 257 255 249 244 243 240 238 236 235 234 232 231 230 229 228 228 228 228 228 229 229 230 230 231 232 232 233 233 232 234 236 236 236 237 239 239 238 236 232 229 227 228 227 225 228 230 229 228 230 232 234 236 238 239 241 243 243 242
319 318 318 318 318 318 317 316 315 313 311 309 307 305 302 298 294 290 288 287 287 287 288 287 286 284 281 277 273 268 263 259 251 245 244 241 238 236 234 233 232 230 229 228 228 227 227 227 228 228 229 229 230 230 231 230 232 234 232 234 237 237 237 236 237 238 237 236 232 229 229 228 225 222 224 229 227 226 230 231 232 234 237 238 240 243 244 244
319 319 319 319 319 319 319 317 316 314 312 310 308 306 303 299 294 292 290 290 290 291 292 292 291 288 285 281 278 273 268 262 254 247 244 241 238 236 234 233 232 231 228 227 227 227 226 226 226 227 228 228 229 229 229 229 231 233 232 234 236 237 237 236 236 237 236 235 233 231 230 226 223 221 221 228 227 224 228 230 230 232 235 237 239 241 244 246
320 320 321 321 321 320 319 317 315 313 312 310 308 307 304 300 298 296 295 295 294 294 295 294 293 290 287 283 279 274 269 264 257 250 246 242 238 236 234 233 231 230 229 226 225 226 225 225 224 225 226 226 227 227 227 228 229 232 231 232 235 236 237 236 236 236 236 235 232 232 231 225 225 224 221 227 226 223 227 228 229 231 233 235 237 240 243 246
322 322 322 322 321 320 319 317 315 314 313 311 309 307 304 303 303 302 302 300 298 297 296 294 292 290 288 285 281 275 270 265 260 253 247 243 239 236 234 232 230 229 228 226 224 224 224 224 223 224 225 225 226 226 226 227 228 230 231 231 233 234 236 236 236 236 236 236 233 232 231 227 228 229 223 224 225 223 226 227 227 229 231 233 235 238 242 245
325 323 322 321 321 320 319 318 316 315 314 311 309 307 305 305 306 306 305 303 300 299 297 294 292 290 289 287 282 277 273 269 265 259 250 244 240 236 233 232 230 228 227 226 223 223 223 223 222 222 223 224 225 225 225 226 226 227 229 229 231 233 234 235 235 235 235 236 235 232 232 228 229 231 224 220 223 223 225 226 227 229 230 231 232 235 239 243
325 323 322 321 321 321 321 320 318 317 314 311 309 307 306 305 306 306 305 304 303 301 298 294 292 291 292 290 284 280 277 275 275 267 253 243 238 234 232 230 229 228 226 225 223 221 222 222 221 221 221 222 222 222 223 224 224 225 226 227 229 231 233 235 233 233 234 234 234 231 232 230 229 232 225 218 223 223 224 226 226 229 229 229 230 232 236 239
326 324 323 322 323 323 323 322 321 318 315 311 307 305 304 305 306 306 306 306 305 303 299 296 294 294 294 291 288 286 285 286 287 277 257 243 235 231 229 228 227 227 225 223 221 220 220 220 220 220 219 220 220 220 221 222 222 222 224 225 227 229 231 234 233 231 232 233 233 231 232 231 228 231 225 218 223 224 223 226 226 228 229 228 229 229 231 235
327 325 324 324 325 325 324 324 323 321 316 310 304 301 301 305 307 308 309 308 306 304 301 299 298 299 297 292 289 291 296 300 300 288 263 242 231 226 224 223 224 224 223 222 220 218 218 219 219 219 218 218 218 219 220 221 221 221 223 224 226 227 227 232 231 228 230 232 232 232 232 231 229 230 225 219 223 223 222 225 226 228 229 228 228 228 229 231
328 327 327 327 327 327 326 325 324 321 314 307 301 299 302 307 307 308 311 310 308 305 302 300 300 302 299 294 292 296 306 308 305 295 269 241 227 222 218 217 218 221 221 220 218 216 216 217 217 217 217 217 218 218 219 220 221 221 222 222 225 227 226 230 233 228 228 232 233 233 233 232 232 231 227 222 223 222 221 223 225 227 227 227 227 227 228 229
330 330 329 329 329 328 327 326 324 320 315 308 304 301 303 308 308 308 312 312 308 304 302 299 298 303 300 293 293 299 307 308 304 293 269 240 224 219 214 211 211 215 217 218 217 215 214 215 216 216 217 217 217 216 217 219 219 219 220 220 223 227 226 229 234 230 227 231 232 232 232 231 231 231 227 225 224 222 221 222 224 226 227 227 227 227 228 228
333 332 331 331 330 328 326 326 325 323 320 314 310 307 307 310 309 309 312 314 309 302 298 294 294 300 298 292 292 297 305 307 302 288 265 239 223 217 211 207 205 209 213 214 214 213 213 214 213 215 216 216 216 215 216 218 218 219 219 218 220 225 225 226 230 228 225 229 230 229 230 227 227 229 226 224 224 222 221 221 224 226 227 228 227 227 228 229
335 335 334 332 330 327 326 327 328 327 323 319 316 313 312 312 310 311 314 316 313 302 295 291 291 294 295 292 291 296 303 304 299 284 259 237 221 212 206 203 201 203 207 209 210 210 210 211 211 213 214 214 214 213 215 217 217 218 218 217 219 222 222 222 224 224 221 224 227 227 227 225 224 226 224 222 223 222 221 221 222 225 227 228 228 228 228 228
337 337 336 333 330 328 327 328 330 328 325 322 321 318 315 314 313 316 318 320 318 305 297 294 291 291 293 292 292 298 301 301 298 282 257 235 216 205 201 199 197 198 201 205 208 208 208 209 209 211 212 212 213 212 213 215 216 217 217 216 217 219 220 219 220 222 220 221 224 224 223 222 221 223 223 220 221 221 220 219 219 222 224 226 227 228 228 228
338 339 338 334 331 328 327 328 331 329 327 326 324 321 319 317 318 322 322 325 324 310 303 302 296 293 294 292 295 299 300 303 297 278 257 234 209 198 195 194 193 195 198 202 205 207 207 207 207 209 210 210 211 211 212 214 214 215 216 215 215 217 217 215 218 221 220 220 224 223 221 220 218 221 221 219 219 219 218 217 218 219 222 223 225 226 227 226
339 340 339 336 333 329 327 329 332 331 329 329 328 326 323 322 325 326 326 329 328 320 314 311 303 297 295 294 296 300 302 305 297 275 254 226 201 193 191 191 192 194 197 199 201 202 203 205 206 206 208 208 208 209 209 211 212 212 213 212 213 214 212 210 214 216 217 220 223 223 221 219 218 220 221 219 219 219 218 217 217 219 221 222 224 225 226 226
340 341 340 338 335 331 329 331 333 333 333 333 331 330 328 328 330 329 329 332 333 329 323 314 305 301 300 298 298 302 304 305 299 282 251 212 194 189 188 189 190 192 194 196 199 199 200 203 204 205 206 206 207 207 207 209 210 210 211 210 211 211 206 207 211 213 217 220 221 222 220 218 218 219 219 218 219 218 218 218 218 218 219 222 224 225 226 227
342 343 342 339 336 334 332 332 334 335 336 336 333 333 333 333 334 331 331 336 337 334 329 317 310 309 308 306 305 306 304 304 301 288 240 200 190 187 186 188 189 190 191 194 199 198 198 201 202 203 203 203 205 206 206 208 208 209 210 209 210 208 203 205 207 210 215 218 219 220 219 218 219 219 218 218 219 218 217 217 217 217 218 220 222 224 225 226
344 345 344 341 338 337 336 335 336 338 338 337 334 335 337 336 336 334 335 340 340 337 332 322 313 311 313 312 311 309 303 300 297 285 224 192 186 185 186 187 188 191 191 194 198 199 198 199 199 199 200 201 203 204 206 206 206 208 208 207 208 204 200 203 205 207 212 216 218 217 216 218 219 219 217 217 218 217 217 217 216 216 217 218 220 221 223 224
345 347 346 342 340 340 340 339 339 340 340 339 338 338 338 338 337 336 340 343 341 338 335 327 314 310 316 314 312 311 302 291 283 278 214 187 183 183 184 186 188 192 193 192 196 201 200 198 195 196 198 199 200 200 203 204 204 207 206 203 204 200 198 201 203 205 211 216 217 216 217 217 218 219 217 216 217 216 216 216 216 216 216 216 218 219 220 221
347 348 347 345 344 344 344 343 343 343 341 341 341 339 338 338 336 338 345 347 343 340 339 333 320 316 317 311 314 315 300 281 269 263 204 185 183 181 181 186 188 190 193 191 193 201 200 195 193 194 196 197 198 199 200 200 202 206 204 199 200 198 197 200 201 204 212 217 216 216 218 218 218 219 217 217 218 216 216 215 215 216 215 215 214 215 217 217
348 350 349 348 347 347 347 348 347 346 344 342 342 340 340 340 339 343 348 348 346 346 346 339 327 325 317 308 314 316 294 272 257 239 196 184 182 181 181 185 187 186 191 193 194 198 196 193 192 193 194 195 196 197 197 197 200 203 200 195 196 195 195 199 201 205 212 215 214 216 218 217 218 219 218 217 217 216 215 214 215 216 216 214 211 211 212 213
350 351 351 350 350 350 350 351 350 348 347 346 344 343 343 342 342 347 349 349 350 351 352 344 332 331 324 315 318 320 298 258 241 217 190 181 180 182 181 183 186 186 188 191 195 197 192 190 192 192 193 194 195 195 195 196 198 199 196 193 193 194 195 198 201 206 212 213 213 216 218 217 216 217 218 216 213 213 212 211 212 214 214 212 209 208 208 211
351 352 353 353 352 352 352 353 353 352 351 351 349 347 346 345 347 349 348 350 353 355 359 354 344 341 334 326 322 319 310 252 231 199 184 179 176 181 182 181 185 188 191 192 195 197 190 188 191 192 193 194 193 193 193 195 197 197 194 192 192 194 196 198 202 206 210 212 212 214 217 218 216 218 219 214 209 209 208 207 208 207 208 208 207 206 207 209
351 353 354 355 355 354 354 355 356 356 356 355 353 350 350 352 353 352 348 349 353 357 3 4 3 3 354 341 327 313 305 263 233 188 180 177 174 178 182 183 182 185 191 193 195 197 192 189 190 190 192 194 192 191 193 195 196 195 193 190 191 195 198 199 202 206 209 212 212 213 215 217 216 218 218 211 207 206 204 203 203 202 202 203 203 203 206 209
352 354 355 356 357 356 356 357 359 0 1 0 358 355 355 357 358 356 351 350 353 356 2 9 13 19 19 12 356 323 256 244 222 184 177 176 174 175 179 182 183 184 187 189 192 194 191 193 192 189 190 191 190 190 189 192 194 193 191 188 189 194 198 201 203 206 209 212 213 213 215 216 215 216 214 207 204 204 202 201 201 200 200 200 200 201 205 208
353 354 356 357 357 358 359 359 1 2 4 5 3 0 359 359 360 359 354 351 354 355 359 9 15 21 28 32 30 33 156 196 187 175 173 173 175 175 176 179 183 185 185 184 190 190 189 194 193 190 189 189 188 189 188 189 192 192 191 189 189 193 197 200 203 206 208 212 213 213 215 217 216 216 211 203 203 204 202 201 200 200 200 199 199 202 205 208
353 355 357 357 358 359 0 1 3 4 5 7 8 5 3 1 2 3 357 353 357 358 356 3 13 18 27 36 38 42 85 164 163 165 170 172 173 173 174 177 182 184 181 180 186 188 190 195 192 189 189 187 185 187 188 187 189 191 191 188 190 194 196 197 202 206 208 211 214 214 216 219 219 218 210 201 203 203 201 200 199 199 199 199 201 204 206 208
353 355 356 357 358 360 1 2 4 5 4 6 10 9 5 3 5 7 360 353 358 3 357 358 8 14 19 31 39 45 67 123 152 163 167 169 170 172 174 177 179 181 179 177 180 183 188 194 191 189 189 186 184 185 186 186 186 188 189 189 193 197 197 197 201 205 207 209 213 214 215 218 220 219 210 202 204 203 199 200 200 200 200 202 204 206 207 209
354 355 356 357 358 359 1 3 5 6 5 6 9 10 7 6 6 9 4 355 358 5 3 1 9 16 18 24 38 51 69 95 134 159 163 165 169 171 174 178 178 179 179 175 174 181 187 190 189 187 187 187 186 184 185 187 188 186 186 190 195 196 197 199 203 205 206 208 213 214 214 216 218 217 209 202 202 202 199 200 200 200 201 203 205 206 208 210
355 355 356 358 0 0 1 4 6 7 7 7 9 8 7 8 9 11 10 2 358 3 8 9 13 23 27 32 49 64 80 97 123 149 157 163 169 170 173 177 177 178 179 176 173 178 184 187 188 186 185 187 187 185 184 188 190 188 187 189 193 195 196 199 203 205 205 207 213 215 215 216 217 216 208 201 200 201 200 199 199 199 200 201 202 204 207 210
356 356 357 359 2 2 1 3 6 7 8 8 8 7 6 7 8 10 11 10 6 3 6 11 16 26 37 50 63 71 87 100 113 138 151 157 165 170 172 174 176 178 180 179 175 174 179 186 187 185 185 186 186 185 185 186 188 189 188 188 190 194 196 197 201 203 203 206 211 214 216 217 217 215 207 200 200 200 199 197 197 199 199 199 200 203 206 208
356 357 359 1 3 3 1 2 5 8 8 7 5 7 8 8 10 12 12 15 16 11 7 13 20 32 46 57 66 73 87 97 99 114 139 152 160 169 173 173 175 178 179 179 178 176 177 180 184 185 186 186 184 185 186 186 187 187 187 186 189 193 195 197 201 202 203 206 209 212 214 215 216 213 205 199 200 200 198 196 195 196 197 198 199 202 204 205
356 358 1 2 3 3 2 4 7 8 8 7 4 6 10 12 13 16 16 17 20 19 14 16 23 38 51 55 63 74 84 90 88 90 112 145 159 168 173 175 176 174 175 176 179 181 176 174 181 184 184 184 183 184 186 187 187 186 184 186 189 192 194 195 199 202 204 206 209 212 213 213 212 209 204 200 200 200 199 196 195 194 195 196 198 201 203 203
357 358 1 3 4 3 2 6 10 9 8 8 6 6 11 15 15 16 18 18 20 21 19 21 28 40 49 50 56 69 81 87 85 85 108 144 160 167 172 175 175 173 173 172 175 181 177 173 181 182 179 181 184 184 185 186 186 183 184 188 190 190 192 194 198 201 202 204 207 211 214 214 209 205 203 201 200 201 198 196 195 194 193 195 197 200 201 201
358 358 1 4 4 3 2 6 9 10 10 10 10 10 12 14 15 16 15 14 14 14 16 25 34 43 52 53 54 63 78 93 94 92 115 149 162 168 174 175 173 175 176 172 174 179 175 170 182 185 182 183 184 185 185 184 183 183 185 189 190 189 191 195 199 200 200 203 204 203 207 211 206 202 203 201 200 201 198 195 194 193 193 195 196 198 198 200
360 360 2 3 3 3 4 6 9 10 11 12 13 14 15 17 17 16 16 16 15 14 18 28 38 44 51 60 61 63 74 94 108 110 125 152 162 169 176 173 171 175 176 172 174 177 173 169 176 182 184 184 184 185 186 185 183 184 186 189 191 191 191 194 198 199 199 203 204 201 201 203 200 199 203 201 198 200 197 193 193 192 192 194 194 195 197 201
0 1 2 1 2 4 6 8 9 10 12 13 15 15 17 21 22 18 18 20 19 22 29 34 38 40 44 58 68 67 69 78 99 120 132 146 155 164 169 165 164 170 169 166 169 173 172 173 175 176 178 182 186 188 188 186 186 185 186 188 190 192 192 194 197 198 198 200 203 205 206 203 196 197 202 200 198 198 195 192 192 192 191 191 191 194 198 203
0 2 2 1 2 4 7 9 10 11 12 13 14 16 17 19 22 21 20 19 20 26 34 41 50 54 53 59 68 78 85 80 91 118 129 135 145 153 157 154 155 161 161 160 165 169 170 173 177 178 177 180 186 190 188 187 187 187 187 188 189 190 191 194 196 196 195 194 194 198 202 200 196 197 200 198 196 195 192 190 192 191 189 187 188 193 200 206
0 1 1 1 2 3 6 10 10 12 14 13 11 14 15 16 20 23 21 19 21 25 29 39 57 64 61 60 65 80 94 91 100 120 126 131 140 147 149 149 150 154 157 159 164 169 170 172 176 179 181 183 185 187 187 188 189 189 189 189 189 188 190 192 193 193 193 193 189 186 188 192 192 194 196 196 194 192 190 190 190 188 185 184 186 193 201 208
358 0 1 2 3 3 5 9 11 11 14 15 12 11 11 13 19 25 23 20 23 28 31 38 50 53 54 59 66 80 93 100 113 125 129 133 139 142 142 143 145 149 155 159 164 168 171 171 174 178 181 184 184 183 185 189 191 192 192 191 190 190 190 190 191 191 191 189 184 176 176 182 185 187 190 192 192 191 189 188 187 184 182 182 187 195 202 209
355 359 1 2 3 3 5 8 11 11 13 15 15 12 11 13 18 24 25 23 24 30 36 44 48 48 52 58 70 87 102 114 123 129 131 131 133 135 138 141 142 145 152 158 160 164 167 169 172 175 179 182 183 183 184 186 189 192 194 193 192 191 190 189 190 189 186 180 173 170 173 177 179 182 185 188 190 190 187 185 184 182 182 184 190 198 205 209
353 357 359 1 3 5 6 9 10 11 13 16 15 13 13 16 20 26 29 28 27 31 37 43 47 49 53 60 74 92 108 122 128 128 128 127 130 137 143 145 145 148 154 158 157 161 165 166 166 170 176 180 182 183 182 183 187 191 191 191 191 191 189 188 187 186 184 178 172 170 172 175 177 179 181 184 187 187 184 183 183 183 184 188 194 200 206 208